Adelaide, Australia

7:20 AM ACDT on December 11, 2016 (GMT +1030)
Adelaide

Weather History for 94672 - January, 2014

Change the Weather History Date:

Friday, January 17, 2014

  Actual Average Record
Temperature  
Mean Temperature 90 °F -  
Max Temperature 104 °F 82 °F - ()
Min Temperature 73 °F 60 °F - ()
Cooling Degree Days 24    
Growing Degree Days 40 (Base 50)    
Moisture  
Dew Point 52 °F    
Average Humidity 33    
Maximum Humidity 83    
Minimum Humidity 6    
Precipitation  
Precipitation 0.08 in 0.03 in - ()
Sea Level Pressure  
Sea Level Pressure 29.72 in    
Wind  
Wind Speed 10 mph ()    
Max Wind Speed 30 mph    
Max Gust Speed 40 mph    
Visibility 10.2 miles    
Events Rain , Thunderstorm    
T = Trace of Precipitation, MM = Missing Value Source: Averaged Metar Reports

Daily Weather History Graph

Daily Weather History Graph

Search for Another Location

Airport or City:

Trip Planner

Search our weather history database for the weather conditions in past years. The results will help you decide how hot, cold, wet, or windy it might be!

Date:

Astronomy

Jan. 17, 2014 Rise Set
Actual Time 6:19 AM ACDT 8:31 PM ACDT
Civil Twilight 5:50 AM ACDT 9:00 PM ACDT
Nautical Twilight 5:15 AM ACDT 9:35 PM ACDT
Astronomical Twilight 4:37 AM ACDT 10:13 PM ACDT
Moon 8:51 PM ACDT (1/17) 7:08 AM ACDT (1/17)
Length of Visible Light 15h 09m
Length of Day
14h 12m
Full, 99% of the Moon is Illuminated
Jan 17
Full
Jan 24
Last Quarter
Jan 31
New
Feb 7
First Quarter
Feb 15
Full

Hourly Weather History & Observations

Time (ACDT) Temp. Heat Index Dew Point Humidity Pressure Visibility Wind Dir Wind Speed Gust Speed Precip Events Conditions
12:00 AM 88 °F - 48 °F 16% 29.73 in 19 mi East 3.5 mph - -   Partly Cloudy
12:00 AM 87.8 °F - 48.2 °F 25% 29.71 in - East 3.5 mph - N/A   Clear
12:30 AM 86.0 °F - 48.2 °F 27% 29.71 in - NE 8.1 mph - N/A   Clear
1:00 AM 86.0 °F - 44.6 °F 23% 29.71 in - NE 10.4 mph - N/A   Clear
1:30 AM 85 °F - 44 °F 14% 29.71 in - NE 5.8 mph - -  
1:30 AM 86.0 °F - 42.8 °F 22% 29.71 in - NE 5.8 mph - N/A   Clear
2:00 AM 86.0 °F - 44.6 °F 23% 29.68 in - NE 6.9 mph - N/A   Clear
2:30 AM 84.2 °F - 44.6 °F 25% 29.68 in - NE 5.8 mph - N/A   Clear
3:00 AM 81 °F - 47 °F 21% 29.69 in 19 mi ENE 2.3 mph - -   Partly Cloudy
3:00 AM 80.6 °F - 48.2 °F 32% 29.68 in - ENE 2.3 mph - N/A   Clear
3:30 AM 78.8 °F - 46.4 °F 32% 29.68 in - Calm Calm - N/A   Clear
4:00 AM 77.0 °F - 50.0 °F 39% 29.68 in - ENE 5.8 mph - N/A   Clear
4:30 AM 77 °F - 47 °F 23% 29.68 in - NE 6.9 mph - -  
4:30 AM 77.0 °F - 46.4 °F 34% 29.68 in - NE 6.9 mph - N/A   Clear
5:00 AM 78.8 °F - 42.8 °F 28% 29.68 in - NNE 8.1 mph - N/A   Clear
5:30 AM 80.6 °F - 37.4 °F 21% 29.68 in - NE 9.2 mph - N/A   Clear
6:00 AM 80 °F - 38 °F 13% 29.69 in 19 mi NE 10.4 mph - -   Partly Cloudy
6:00 AM 80.6 °F - 37.4 °F 21% 29.68 in - NE 10.4 mph - N/A   Clear
6:30 AM 86.0 °F - 35.6 °F 17% 29.68 in - NNE 11.5 mph - N/A   Clear
7:00 AM 87.8 °F - 35.6 °F 16% 29.68 in - NE 10.4 mph - N/A   Clear
7:30 AM 92 °F - 35 °F 7% 29.71 in - NNE 10.4 mph - -  
7:30 AM 91.4 °F - 35.6 °F 14% 29.71 in - NNE 10.4 mph - N/A   Clear
8:00 AM 93.2 °F - 33.8 °F 12% 29.71 in - North 13.8 mph - N/A   Clear
8:30 AM 95.0 °F - 33.8 °F 12% 29.71 in - North 16.1 mph - N/A   Clear
9:00 AM 97 °F - 36 °F 6% 29.72 in 19 mi North 13.8 mph - -   Partly Cloudy
9:00 AM 96.8 °F - 35.6 °F 12% 29.71 in - North 13.8 mph - N/A   Clear
9:26 AM 87.8 °F 86.1 °F 55.4 °F 33% 29.74 in 6.2 mi WSW 16.1 mph 28.8 mph N/A   Mostly Cloudy
9:30 AM 89.6 °F - 48.2 °F 24% 29.74 in - WSW 17.3 mph 28.8 mph N/A   Clear
10:00 AM 89.6 °F - 50.0 °F 26% 29.74 in - SW 10.4 mph - N/A   Clear
10:30 AM 92 °F - 49 °F 14% 29.75 in - NNW 4.6 mph - -  
10:30 AM 91.4 °F - 50.0 °F 24% 29.74 in - NNW 4.6 mph - N/A   Clear
11:00 AM 96.8 °F - 46.4 °F 18% 29.74 in - North 5.8 mph - N/A   Clear
11:30 AM 96.8 °F - 48.2 °F 19% 29.74 in - NE 4.6 mph - N/A   Clear
12:00 PM 96 °F - 51 °F 13% 29.73 in 19 mi NW 4.6 mph - -   Partly Cloudy
12:00 PM 96.8 °F - 50.0 °F 20% 29.71 in - NW 4.6 mph - N/A   Clear
12:30 PM 89.6 °F 87.3 °F 53.6 °F 29% 29.71 in - WSW 9.2 mph - N/A   Clear
1:00 PM 93.2 °F 91.3 °F 55.4 °F 28% 29.71 in - West 5.8 mph - N/A   Clear
1:30 PM 98 °F - 52 °F 13% 29.70 in - NW 5.8 mph - -  
1:30 PM 98.6 °F - 51.8 °F 21% 29.68 in - NW 5.8 mph - N/A   Clear
2:00 PM 96.8 °F 96.2 °F 59.0 °F 28% 29.68 in - West 8.1 mph - N/A   Clear
2:30 PM 91.4 °F 90.7 °F 59.0 °F 34% 29.68 in - SW 11.5 mph - N/A   Clear
3:00 PM 97 °F - 48 °F 11% 29.68 in 19 mi WSW 10.4 mph - -   Partly Cloudy
3:00 PM 96.8 °F - 48.2 °F 19% 29.65 in - SW 10.4 mph - N/A   Clear
3:30 PM 98.6 °F - 46.4 °F 17% 29.65 in - SW 10.4 mph - N/A   Clear
4:00 PM 100.4 °F - 48.2 °F 17% 29.65 in - SW 10.4 mph - N/A   Clear
4:30 PM 100 °F - 47 °F 9% 29.64 in - WSW 9.2 mph - -  
4:30 PM 100.4 °F - 46.4 °F 16% 29.62 in - WSW 9.2 mph - N/A   Clear
5:00 PM 104.0 °F - 44.6 °F 13% 29.62 in - WNW 8.1 mph - N/A   Clear
5:30 PM 102.2 °F - 42.8 °F 13% 29.62 in - NW 12.7 mph - N/A   Clear
5:35 PM 91.4 °F 91.4 °F 60.8 °F 36% 29.65 in - WSW 26.5 mph 38.0 mph N/A   Clear
5:53 PM 86.0 °F 87.3 °F 64.4 °F 48% 29.65 in - SSW 26.5 mph - N/A   Clear
6:00 PM 86 °F - 62 °F 34% 29.67 in 19 mi SSW 24.2 mph - -   Partly Cloudy
6:00 PM 86.0 °F 86.6 °F 62.6 °F 45% 29.65 in - SSW 24.2 mph - N/A   Clear
6:08 PM 82.4 °F 83.9 °F 64.4 °F 54% 29.68 in - SSW 24.2 mph 35.7 mph N/A   Clear
6:30 PM 78.8 °F - 66.2 °F 65% 29.68 in - SSW 25.3 mph - N/A   Clear
6:48 PM 80.6 °F 82.3 °F 64.4 °F 58% 29.71 in - SSW 19.6 mph 32.2 mph N/A   Clear
6:50 PM 84.2 °F 84.4 °F 60.8 °F 45% 29.71 in - South 27.6 mph - N/A   Clear
7:00 PM 82.4 °F 82.5 °F 59.0 °F 45% 29.71 in - South 26.5 mph - N/A   Clear
7:11 PM 78.8 °F - 60.8 °F 54% 29.74 in - SSE 26.5 mph - N/A   Clear
7:13 PM 78.8 °F - 59.0 °F 51% 29.74 in - SSE 28.8 mph 40.3 mph N/A   Clear
7:30 PM 79 °F - 59 °F 40% 29.77 in - SSE 26.5 mph - -  
7:30 PM 78.8 °F - 59.0 °F 51% 29.77 in - SSE 26.5 mph 39.1 mph N/A   Clear
8:00 PM 77.0 °F - 59.0 °F 54% 29.74 in 6.2 mi SSE 25.3 mph - N/A   Mostly Cloudy
8:13 PM 77.0 °F - 60.8 °F 57% 29.77 in 6.2 mi SSE 21.9 mph 33.4 mph N/A   Mostly Cloudy
8:30 PM 77.0 °F - 60.8 °F 57% 29.77 in 6.2 mi SE 29.9 mph - N/A   Mostly Cloudy
8:34 PM 75.2 °F - 60.8 °F 61% 29.77 in 6.2 mi SE 27.6 mph 39.1 mph N/A   Mostly Cloudy
9:00 PM 76 °F - 61 °F 50% 29.80 in 12 mi SE 23.0 mph - -   Partly Cloudy
9:00 PM 75.2 °F - 60.8 °F 61% 29.80 in 6.2 mi SE 23.0 mph 34.5 mph N/A   Mostly Cloudy
9:30 PM 75.2 °F - 62.6 °F 65% 29.80 in 6.2 mi SE 24.2 mph 35.7 mph N/A   Mostly Cloudy
10:00 PM 75.2 °F - 60.8 °F 61% 29.80 in 6.2 mi SE 26.5 mph - N/A   Mostly Cloudy
10:08 PM 75.2 °F - 60.8 °F 61% 29.80 in 6.2 mi SE 23.0 mph 34.5 mph N/A   Mostly Cloudy
10:30 PM 75 °F - 61 °F 52% 29.85 in - SE 20.7 mph - -  
10:30 PM 75.2 °F - 60.8 °F 61% 29.83 in 6.2 mi SE 20.7 mph - N/A   Mostly Cloudy
10:50 PM 75.2 °F - 60.8 °F 61% 29.89 in 6.2 mi NE 11.5 mph 24.2 mph N/A Thunderstorm Partly Cloudy
11:00 PM 77.0 °F - 60.8 °F 57% 29.92 in 6.2 mi NNW 16.1 mph - N/A Thunderstorm Thunderstorm
11:16 PM 77.0 °F - 64.4 °F 65% 29.92 in 3.7 mi NNW 10.4 mph - N/A Rain , Thunderstorm Thunderstorms and Rain
11:30 PM 75.2 °F - 66.2 °F 73% 29.92 in 6.2 mi NNE 2.3 mph - N/A Thunderstorm Partly Cloudy
11:43 PM 73.4 °F - 68.0 °F 83% 29.89 in 6.2 mi SE 10.4 mph - N/A Rain , Thunderstorm Light Thunderstorms and Rain